Mt. Pocono, PA

8:28 AM EST on December 08, 2019 (GMT -0500)
Pocono Mountains Municipal

Weather History for KMPO - November, 2019

Change the Weather History Date:

Wednesday, November 13, 2019

  Actual Average Record
Temperature  
Mean Temperature 17 °F 40 °F  
Max Temperature 23 °F 47 °F 69 °F (1902)
Min Temperature 11 °F 32 °F 12 °F (1911)
Degree Days  
Heating Degree Days 48 25  
Month to date heating degree days 409 301  
Since 1 July heating degree days 1019 1089  
Cooling Degree Days 0 0  
Month to date cooling degree days 0 0  
Year to date cooling degree days 348 314  
Moisture  
Dew Point 7 °F    
Average Humidity 65    
Maximum Humidity 88    
Minimum Humidity 52    
Precipitation  
Precipitation 0.00 in 0.13 in 1.78 in (1974)
Month to date precipitation 0.39 1.73  
Year to date precipitation 44.74 42.03  
Sea Level Pressure  
Sea Level Pressure 30.32 in    
Wind  
Wind Speed 12 mph ()    
Max Wind Speed 23 mph    
Max Gust Speed 30 mph    
Visibility 10.0 miles    
Events      
T = Trace of Precipitation, MM = Missing Value Source: Averaged Metar Reports

Daily Weather History Graph

Daily Weather History Graph

Search for Another Location

Airport or City:

Astronomy

Nov. 13, 2019 Rise Set
Actual Time 6:46 AM EST 4:44 PM EST
Civil Twilight 6:17 AM EST 5:13 PM EST
Nautical Twilight 5:44 AM EST 5:47 PM EST
Astronomical Twilight 5:11 AM EST 6:19 PM EST
Moon 5:45 PM EST (11/13) 7:37 AM EST (11/13)
Length of Visible Light 10h 56m
Length of Day
9h 57m
Full, 99% of the Moon is Illuminated
Nov 13
Full
Nov 19
Last Quarter
Nov 26
New
Dec 4
First Quarter
Dec 12
Full

Hourly Weather History & Observations

Time (EST) Temp. Windchill Dew Point Humidity Pressure Visibility Wind Dir Wind Speed Gust Speed Precip Events Conditions
12:53 AM 12.9 °F -3.4 °F 3.9 °F 67% 30.16 in 10.0 mi WNW 16.1 mph 23.0 mph N/A   Clear
1:53 AM 12.9 °F -3.4 °F 3.9 °F 67% 30.17 in 10.0 mi WNW 16.1 mph 21.9 mph N/A   Clear
2:53 AM 12.9 °F -1.6 °F 5.0 °F 71% 30.19 in 10.0 mi WNW 12.7 mph - N/A   Clear
3:53 AM 12.9 °F -1.6 °F 5.0 °F 71% 30.20 in 10.0 mi WNW 12.7 mph - N/A   Clear
4:53 AM 12.9 °F -2.2 °F 5.0 °F 71% 30.22 in 10.0 mi WNW 13.8 mph - N/A   Clear
7:53 AM 14.0 °F -1.4 °F 8.1 °F 77% 30.28 in 10.0 mi WNW 15.0 mph 25.3 mph N/A   Clear
8:53 AM 16.0 °F -2.1 °F 9.0 °F 74% 30.31 in 10.0 mi NW 23.0 mph - N/A   Clear
9:53 AM 18.0 °F 1.3 °F 9.0 °F 68% 30.34 in 10.0 mi NW 20.7 mph 27.6 mph N/A   Mostly Cloudy
11:53 AM 21.0 °F 5.4 °F 8.1 °F 57% 30.35 in 10.0 mi NW 20.7 mph - N/A   Clear
12:53 PM 21.9 °F 9.2 °F 8.1 °F 55% 30.35 in 10.0 mi NW 13.8 mph 20.7 mph N/A   Clear
1:53 PM 21.9 °F 8.7 °F 7.0 °F 53% 30.35 in 10.0 mi NW 15.0 mph 25.3 mph N/A   Clear
2:53 PM 21.9 °F 6.9 °F 7.0 °F 53% 30.34 in 10.0 mi NW 19.6 mph 24.2 mph N/A   Clear
3:53 PM 21.0 °F 7.6 °F 6.1 °F 53% 30.36 in 10.0 mi NW 15.0 mph - N/A   Clear
4:53 PM 19.9 °F 11.1 °F 6.1 °F 55% 30.37 in 10.0 mi WNW 6.9 mph - N/A   Clear
5:53 PM 19.0 °F 12.3 °F 7.0 °F 59% 30.39 in 10.0 mi NW 4.6 mph - N/A   Clear
6:53 PM 16.0 °F - 8.1 °F 71% 30.40 in 10.0 mi Calm Calm - N/A   Clear
7:53 PM 15.1 °F - 8.1 °F 74% 30.41 in 10.0 mi Calm Calm - N/A   Clear
8:53 PM 14.0 °F - 9.0 °F 80% 30.41 in 10.0 mi Calm Calm - N/A   Clear
10:53 PM 17.1 °F 10.0 °F 8.1 °F 68% 30.39 in 10.0 mi East 4.6 mph - N/A   Overcast
11:53 PM 18.0 °F 9.8 °F 8.1 °F 65% 30.40 in 10.0 mi ESE 5.8 mph - N/A   Clear